Regional Weather Roundup
Issued by NWS Green Bay, WI

Home | Current Version | Previous Version | Graphics & Text | Print | Product List | Glossary Off
Versions: 1 2 3 4 5 6 7 8 9 10 11 12 13 14 15 16 17 18 19 20 21 22 23 24 25 26 27 28 29 30 31 32 33 34 35 36 37 38 39 40 41 42 43 44 45 46 47 48 49 50

000
ASUS43 KGRB 281159
RWRGRB

NORTH-CENTRAL AND NORTHEAST WISCONSIN REGIONAL WEATHER ROUNDUP
NATIONAL WEATHER SERVICE GREEN BAY WI
600 AM CST FRI NOV 28 2014

WIZ005-009-010>012-018-019-281300-
NORTH CENTRAL WISCONSIN

CITY           SKY/WX    TMP DP  RH WIND       PRES   REMARKS
IRONWOOD       CLOUDY     7   1  78 S3        30.10F
MANITOWISH WTR NOT AVBL
ARBOR VITAE    NOT AVBL
EAGLE RIVER    NOT AVBL
LAND O LAKES   NOT AVBL
RHINELANDER    FLURRIES   4   0  83 S3        30.13F
PHILLIPS       NOT AVBL
ANTIGO         NOT AVBL
TOMAHAWK       NOT AVBL
MERRILL        NOT AVBL
$$

WIZ013-073-281300-
NORTHEAST WISCONSIN

CITY           SKY/WX    TMP DP  RH WIND       PRES   REMARKS
IRON MOUNTAIN  CLOUDY     2  -2  83 CALM      30.18F
MARINETTE      CLOUDY     9   3  78 W3        30.25F
$$

WIZ017-030-035>037-045-281300-
CENTRAL WISCONSIN

CITY           SKY/WX    TMP DP  RH WIND       PRES   REMARKS
MEDFORD        NOT AVBL
WAUSAU         LGT SNOW   7   3  84 SE7       30.16F FOG     WCI  -5
MOSINEE        LGT SNOW   7   5  92 SE6       30.17F WCI  -3
MARSHFIELD     LGT SNOW   9   4  80 SE8       30.13F WCI  -3
WISC RAPIDS    CLOUDY    10   4  76 SE6       30.19F WCI   0
STEVENS POINT  NOT AVBL
WAUPACA        NOT AVBL
SHAWANO        NOT AVBL
CLINTONVILLE   NOT AVBL
$$

WIZ038-039-048-051-281300-
FOX VALLEY

CITY           SKY/WX    TMP DP  RH WIND       PRES   REMARKS
NWS GREEN BAY  CLOUDY    11   7  84 S3        30.26F
APPLETON       CLOUDY    10   3  72 S6        30.23F WCI   1
OSHKOSH        CLOUDY    12   6  77 MISG      30.24F
FOND DU LAC    CLOUDY    13   7  77 S7        30.24F WCI   3
$$

WIZ022-050-052-281300-
EAST CENTRAL WISCONSIN

CITY           SKY/WX    TMP DP  RH WIND       PRES   REMARKS
STURGEON BAY   CLOUDY    12   7  79 CALM      30.25S
MANITOWOC      NOT AVBL
SHEBOYGAN      CLOUDY    12   4  70 S5        30.25F WCI   4
$$

LMZ563-521-522-541>543-281300-
LAKESHORE

STATION/POSITION TIME  TEMP    WIND        PRES    VSBY  WAVE
                       AIR SEA DIR/SP/G                  HT/PER
                 (UTC) (F)     (DEG/KT/KT) (MB)    (MI)  (FT/S)
SHEBOYGAN LKSHOR 1100   13 34  230/  6/  8 1027.4F
KEWAUNEE LKSHORE 1100   11     280/  4/  8 1024.0F
ALGOMA MARINA    1100             CALM       N/A
NORTHPORT PIER   1100   14     170/  3/  4 1024.4F
N MID LAKE BUOY  1100   19 42  260/ 10/ 12 1026.2F         1/ 3
SISTER BAY LKSHO 1100             CALM       N/A
CHAMBERS ISLAND  1100   15     180/  2/  5 1024.7F
MENOMINEE LKSHOR 1100   11     250/  4/  6 1025.4F
$$


USA.gov is the U.S. government's official web portal to all federal, state and local government web resources and services.